GW1572 Weather Reports


time (UTC)temp
C
wind
direction
speed
KPH
gust
KPH
rain 1hr
cm
rain 24hr
cm
rain mn
cm
humidity
%
barometer
mb
20260831191225 32 182 1.6 1.6 0.00 0.00 0.00 72 1010.8
20260831190635 33 209 1.6 3.2 0.00 0.00 0.00 70 1010.8
20260831190045 32 342 3.2 3.2 0.00 0.00 0.00 68 1010.8
20260831185437 32 287 3.2 4.8 0.00 0.00 0.00 70 1011.1
20260831184251 32 210 3.2 4.8 0.00 0.00 0.00 70 1011.1
20260831183631 32 304 3.2 3.2 0.00 0.00 0.00 71 1011.1
20260831183051 32 259 1.6 3.2 0.00 0.00 0.00 72 1011.1
20260831182410 32 245 3.2 3.2 0.00 0.00 0.00 74 1011.1
20260831181832 32 278 1.6 1.6 0.00 0.00 0.00 74 1011.1
20260831180635 31 166 1.6 1.6 0.00 0.00 0.00 74 1011.1
20260831180034 32 329 4.8 4.8 0.00 0.00 0.00 71 1011.1
20260831175420 32 161 1.6 1.6 0.00 0.00 0.00 73 1011.5
20260831174808 32 88 3.2 3.2 0.00 0.00 0.00 76 1011.1
20260831174228 31 188 1.6 1.6 0.00 0.00 0.00 75 1011.5
20260831173651 31 32 3.2 4.8 0.00 0.00 0.00 76 1011.5
20260831172427 31 8 3.2 3.2 0.00 0.00 0.00 77 1011.5
20260831171229 30 273 3.2 3.2 0.00 0.00 0.00 77 1011.5
20260831170623 30 120 0.0 1.6 0.00 0.00 0.00 76 1011.8
20260831165439 30 347 4.8 6.4 0.00 0.00 0.00 77 1011.5
20260831164824 30 126 1.6 1.6 0.00 0.00 0.00 79 1011.8
20260831164248 30 122 0.0 1.6 0.00 0.00 0.00 80 1011.5
20260831163634 30 283 1.6 3.2 0.00 0.00 0.00 82 1011.8
20260831163030 29 253 1.6 3.2 0.00 0.00 0.00 83 1011.8
20260831162440 29 58 1.6 3.2 0.00 0.00 0.00 82 1011.8
20260831161808 28 355 4.8 6.4 0.00 0.00 0.00 85 1011.5
20260831161228 27 236 3.2 3.2 0.00 0.00 0.00 85 1011.8
20260831160646 27 353 4.8 4.8 0.00 0.00 0.00 86 1011.8
20260831160050 27 253 3.2 4.8 0.00 0.00 0.00 88 1011.8
20260831155441 27 81 1.6 1.6 0.00 0.00 0.00 90 1011.8
20260831154218 26 184 1.6 3.2 0.00 0.00 0.00 95 1011.8
20260831153648 25 136 0.0 0.0 0.00 0.00 0.00 95 1011.8
20260831153042 25 157 0.0 1.6 0.00 0.00 0.00 97 1011.8
20260831152407 25 131 0.0 0.0 0.00 0.00 0.00 98 1012.1
20260831151247 24 156 0.0 0.0 0.00 0.00 0.00 99 1012.1
20260831150632 24 158 0.0 0.0 0.00 0.00 0.00 99 1012.1
20260831150014 24 145 0.0 0.0 0.00 0.00 0.00 99 1012.1
20260831145441 24 144 0.0 1.6 0.00 0.00 0.00 99 1012.1
20260831144823 23 140 0.0 0.0 0.00 0.00 0.00 99 1012.1
20260831144217 23 149 0.0 0.0 0.00 0.00 0.00 99 1012.1
20260831143032 23 145 0.0 0.0 0.00 0.00 0.00 99 1012.1
20260831142410 23 149 0.0 0.0 0.00 0.00 0.00 99 1012.1
20260831141247 23 325 1.6 1.6 0.00 0.00 0.00 99 1012.1
20260831140651 23 146 0.0 0.0 0.00 0.00 0.00 99 1012.1
20260831135433 23 148 0.0 0.0 0.00 0.00 0.00 99 1011.8
20260831134848 22 173 1.6 1.6 0.00 0.00 0.00 99 1011.8
20260831134212 22 149 0.0 0.0 0.00 0.00 0.00 99 1011.8
20260831133646 22 132 0.0 0.0 0.00 0.00 0.00 99 1011.8
20260831133036 22 93 0.0 0.0 0.00 0.00 0.00 99 1011.8
20260831132448 22 173 0.0 0.0 0.00 0.00 0.00 99 1011.8
20260831131848 22 149 0.0 0.0 0.00 0.00 0.00 99 1011.5
20260831131239 22 151 0.0 0.0 0.00 0.00 0.00 99 1011.8
20260831130638 22 142 0.0 0.0 0.00 0.00 0.00 99 1011.8
20260831130043 22 133 0.0 0.0 0.00 0.00 0.00 99 1011.5
20260831125406 22 133 0.0 0.0 0.00 0.00 0.00 99 1011.8
20260831124810 21 133 0.0 0.0 0.00 0.00 0.00 99 1011.8
20260831124230 21 138 0.0 0.0 0.00 0.00 0.00 99 1011.8
20260831123035 21 125 0.0 0.0 0.00 0.00 0.00 99 1011.5
20260831122413 21 133 0.0 0.0 0.00 0.00 0.00 99 1011.5
20260831121833 21 130 0.0 0.0 0.00 0.00 0.00 99 1011.5
20260831121237 21 129 0.0 0.0 0.00 0.00 0.00 99 1011.5
20260831120649 21 132 0.0 0.0 0.00 0.00 0.00 99 1011.5
20260831120024 21 132 0.0 0.0 0.00 0.00 0.00 99 1011.8
20260831115442 21 132 0.0 0.0 0.00 0.00 0.00 99 1011.8
20260831114222 21 127 0.0 0.0 0.00 0.00 0.00 99 1011.5
20260831113636 21 126 0.0 0.0 0.00 0.00 0.00 99 1011.5
20260831113049 21 117 0.0 0.0 0.00 0.00 0.00 99 1011.1
20260831112411 21 117 0.0 0.0 0.00 0.00 0.00 99 1011.1
20260831111221 21 129 0.0 0.0 0.00 0.00 0.00 99 1011.1
20260831110608 21 121 0.0 0.0 0.00 0.00 0.00 99 1011.1
20260831110042 21 126 0.0 0.0 0.00 0.00 0.00 99 1010.8
20260831104852 20 123 0.0 0.0 0.00 0.00 0.00 99 1010.8
20260831104229 20 123 0.0 0.0 0.00 0.00 0.00 99 1010.8
20260831103641 20 122 0.0 0.0 0.00 0.00 0.00 99 1010.8
20260831103026 20 123 0.0 0.0 0.00 0.00 0.00 99 1010.8
20260831102417 20 127 0.0 0.0 0.00 0.00 0.00 99 1010.4
20260831101839 20 126 0.0 0.0 0.00 0.00 0.00 99 1010.8
20260831101226 20 124 0.0 0.0 0.00 0.00 0.00 99 1010.8
20260831100629 20 125 0.0 0.0 0.00 0.00 0.00 99 1010.8
20260831100049 20 124 0.0 0.0 0.00 0.00 0.00 99 1010.4
20260831094241 20 131 0.0 0.0 0.00 0.00 0.00 99 1010.8
20260831093645 20 131 0.0 0.0 0.00 0.00 0.00 99 1010.4
20260831093047 20 131 0.0 0.0 0.00 0.00 0.00 99 1010.8
20260831092425 20 130 0.0 0.0 0.00 0.00 0.00 99 1010.8
20260831091841 21 130 0.0 0.0 0.00 0.00 0.00 99 1010.8
20260831090014 20 137 0.0 0.0 0.00 0.00 0.00 99 1010.8
20260831085446 20 137 0.0 0.0 0.00 0.00 0.00 99 1010.8
20260831084813 20 137 0.0 0.0 0.00 0.00 0.00 99 1010.8
20260831083627 20 137 0.0 0.0 0.00 0.00 0.00 99 1010.4
20260831083041 20 137 0.0 0.0 0.00 0.00 0.00 99 1010.4
20260831082423 20 137 0.0 0.0 0.00 0.00 0.00 99 1010.4
20260831081818 20 137 0.0 0.0 0.00 0.00 0.00 99 1010.4
20260831081213 20 137 0.0 0.0 0.00 0.00 0.00 99 1010.4
20260831080627 20 137 0.0 0.0 0.00 0.00 0.00 99 1010.4
20260831075429 20 137 0.0 0.0 0.00 0.00 0.00 99 1010.4
20260831074806 20 137 0.0 0.0 0.00 0.00 0.00 99 1010.1
20260831074237 21 137 0.0 0.0 0.00 0.00 0.00 99 1010.4
20260831073615 21 137 0.0 0.0 0.00 0.00 0.00 99 1010.4
20260831073040 21 137 0.0 0.0 0.00 0.00 0.00 99 1010.1
20260831071845 21 137 0.0 0.0 0.00 0.00 0.00 99 1010.4
20260831070648 21 137 0.0 0.0 0.00 0.00 0.00 99 1010.4
20260831070008 21 137 0.0 0.0 0.00 0.00 0.00 99 1010.4
20260831065444 21 137 0.0 0.0 0.00 0.00 0.00 99 1010.4
20260831064821 21 137 0.0 0.0 0.00 0.00 0.00 99 1010.4
20260831064208 21 137 0.0 0.0 0.00 0.00 0.00 99 1010.4
20260831063033 21 137 0.0 0.0 0.00 0.00 0.00 99 1010.4
20260831062429 21 137 0.0 0.0 0.00 0.00 0.00 99 1010.4
20260831061817 21 137 0.0 0.0 0.00 0.00 0.00 99 1010.4
20260831061236 21 137 0.0 0.0 0.00 0.00 0.00 99 1010.4
20260831060636 21 137 0.0 0.0 0.00 0.00 0.00 99 1010.8
20260831060024 21 137 0.0 0.0 0.00 0.00 0.00 99 1010.8
20260831055425 21 137 0.0 0.0 0.00 0.00 0.00 99 1011.1
20260831054840 21 137 0.0 0.0 0.00 0.00 0.00 99 1010.8
20260831054217 21 137 0.0 0.0 0.00 0.00 0.00 99 1010.8
20260831053621 21 137 0.0 0.0 0.00 0.00 0.00 99 1010.8
20260831053031 21 136 0.0 0.0 0.00 0.00 0.00 99 1010.8
20260831051825 21 137 0.0 0.0 0.00 0.00 0.00 99 1010.8
20260831050642 22 134 0.0 0.0 0.00 0.00 0.00 99 1010.8
20260831045438 21 132 0.0 0.0 0.00 0.00 0.00 99 1011.1
20260831044213 22 132 0.0 0.0 0.00 0.00 0.00 99 1010.8
20260831043638 22 132 0.0 0.0 0.00 0.00 0.00 99 1010.8
20260831043049 22 132 0.0 0.0 0.00 0.00 0.00 99 1010.8
20260831042416 22 129 0.0 0.0 0.00 0.00 0.00 99 1010.8
20260831041832 22 129 0.0 0.0 0.00 0.00 0.00 99 1011.1
20260831040635 22 128 0.0 0.0 0.00 0.00 0.00 99 1011.1
20260831040028 22 120 0.0 0.0 0.00 0.00 0.13 99 1011.1
20260831034829 22 100 0.0 0.0 0.00 0.00 0.13 99 1011.1
20260831034219 22 145 0.0 0.0 0.00 0.00 0.13 99 1011.1
20260831033644 22 145 0.0 0.0 0.00 0.00 0.13 99 1011.1
20260831033012 22 145 0.0 0.0 0.00 0.00 0.13 99 1011.1
20260831032451 22 145 0.0 0.0 0.00 0.00 0.13 99 1011.1
20260831031813 22 145 0.0 0.0 0.00 0.00 0.13 99 1011.1
20260831031234 22 145 0.0 0.0 0.00 0.00 0.13 99 1011.1
20260831030621 22 145 0.0 0.0 0.00 0.00 0.13 99 1011.1
20260831025424 22 145 0.0 0.0 0.00 0.00 0.13 99 1011.1
20260831024226 23 145 0.0 0.0 0.00 0.00 0.13 99 1011.1
20260831023629 23 145 0.0 0.0 0.00 0.00 0.13 99 1011.1
20260831023010 23 145 0.0 0.0 0.00 0.00 0.13 99 1011.1
20260831022426 23 145 0.0 0.0 0.00 0.00 0.13 99 1011.1
20260831021811 23 145 0.0 0.0 0.00 0.00 0.13 99 1011.1
20260831021246 23 145 0.0 0.0 0.00 0.00 0.13 99 1011.1
20260831020640 23 145 0.0 0.0 0.00 0.00 0.13 99 1010.8
20260831015435 23 141 0.0 0.0 0.00 0.00 0.13 99 1010.8
20260831014807 23 141 0.0 0.0 0.00 0.00 0.13 99 1011.1
20260831014231 23 148 0.0 0.0 0.00 0.00 0.13 99 1011.1
20260831013622 23 142 0.0 0.0 0.00 0.00 0.13 99 1011.1
20260831013049 23 143 0.0 0.0 0.00 0.00 0.13 99 1010.8
20260831012433 23 145 0.0 0.0 0.00 0.00 0.13 99 1010.8
20260831011251 23 138 0.0 0.0 0.00 0.00 0.13 99 1010.8
20260831010633 23 139 0.0 0.0 0.00 0.00 0.13 99 1010.8
20260831010048 23 140 0.0 0.0 0.00 0.00 0.13 98 1010.8
20260831005445 23 142 0.0 0.0 0.00 0.00 0.13 98 1010.8
20260831004839 23 138 0.0 0.0 0.00 0.00 0.13 98 1010.4
20260831004244 23 128 0.0 0.0 0.00 0.00 0.13 98 1010.4
20260831003639 23 134 0.0 0.0 0.00 0.00 0.13 97 1010.1
20260831003016 24 129 0.0 0.0 0.00 0.00 0.13 97 1010.1
20260831001838 25 146 0.0 0.0 0.00 0.00 0.13 96 1010.1
20260831001209 25 138 0.0 0.0 0.00 0.00 0.13 94 1010.1
20260831000649 25 143 0.0 0.0 0.00 0.00 0.13 93 1010.1
20260831000024 26 141 0.0 0.0 0.00 0.00 0.13 92 1010.1
20260830234847 27 143 0.0 0.0 0.00 0.00 0.13 89 1009.8
20260830234227 27 146 0.0 0.0 0.00 0.00 0.13 86 1010.1
20260830233608 28 138 0.0 0.0 0.00 0.00 0.13 85 1010.1
20260830232412 28 138 0.0 0.0 0.00 0.00 0.13 86 1009.8
20260830231227 28 138 0.0 0.0 0.00 0.00 0.13 87 1009.8
20260830230609 28 133 0.0 0.0 0.00 0.00 0.13 86 1009.4
20260830230024 28 124 0.0 0.0 0.00 0.00 0.13 85 1009.4
20260830224842 28 143 0.0 0.0 0.00 0.00 0.13 89 1009.4
20260830224245 28 144 0.0 0.0 0.00 0.00 0.13 89 1009.4
20260830223615 28 148 0.0 0.0 0.00 0.00 0.13 89 1009.8
20260830222427 28 139 0.0 0.0 0.00 0.00 0.13 90 1009.4
20260830221823 28 162 0.0 0.0 0.00 0.00 0.13 90 1009.8
20260830215444 27 143 0.0 0.0 0.00 0.00 0.13 92 1009.8
20260830214824 27 148 0.0 0.0 0.00 0.00 0.13 93 1010.4
20260830214234 27 162 0.0 0.0 0.00 0.00 0.13 93 1010.1
20260830213610 27 135 0.0 0.0 0.00 0.00 0.13 93 1010.1
20260830212447 27 152 0.0 0.0 0.00 0.00 0.13 93 1010.1
20260830211844 26 137 0.0 0.0 0.00 0.00 0.13 93 1010.1
20260830211221 26 139 0.0 0.0 0.00 0.00 0.13 93 1010.4
20260830210613 26 142 0.0 0.0 0.00 0.00 0.13 94 1010.1
20260830210045 26 159 0.0 0.0 0.00 0.00 0.13 93 1010.4
20260830205430 26 163 0.0 0.0 0.00 0.00 0.13 94 1010.4
20260830204832 26 134 0.0 0.0 0.00 0.00 0.13 93 1010.4
20260830204247 26 139 0.0 0.0 0.00 0.00 0.13 92 1010.4
20260830203641 26 159 0.0 1.6 0.00 0.00 0.13 90 1010.4
20260830203047 26 121 0.0 0.0 0.00 0.00 0.10 87 1010.8
20260830202427 26 163 1.6 3.2 0.00 0.00 0.10 81 1011.1
20260830201822 27 324 4.8 4.8 0.00 0.00 0.10 79 1010.8
20260830201226 28 149 0.0 0.0 0.00 0.00 0.10 84 1010.8
20260830200650 28 166 1.6 1.6 0.00 0.00 0.10 77 1010.8
20260830200025 30 19 3.2 4.8 0.00 0.00 0.10 79 1010.8
20260830195416 31 165 0.0 0.0 0.00 0.00 0.10 83 1011.1
20260830194833 30 186 1.6 1.6 0.00 0.00 0.10 87 1010.8
20260830194212 27 175 0.0 0.0 0.00 0.00 0.10 92 1010.8
20260830193608 27 131 0.0 0.0 0.00 0.00 0.10 90 1010.8
20260830193024 27 149 1.6 1.6 0.00 0.00 0.10 96 1010.8
20260830192415 26 138 0.0 1.6 0.00 0.00 0.10 94 1011.1
20260830191819 26 145 0.0 0.0 0.00 0.00 0.10 90 1011.1